Theta_e
319 319 318 318 318 318 317 317 317 317 316 316 316 316 315 315 315 316 316 316 316 315 316 316 317 317 310 301 299 331 352 343 351 335 334 331 331 327 309 314 324 322 322 324 326 323 322
319 319 319 318 318 317 317 317 317 317 317 317 317 317 317 316 316 316 316 316 316 315 315 316 317 317 303 289 304 310 333 338 344 327 324 317 319 320 306 307 313 314 320 321 320 314 319
320 319 319 318 318 317 317 317 317 316 316 316 316 316 316 316 316 316 316 315 314 314 315 317 318 313 306 295 307 307 330 325 329 322 313 313 312 315 307 303 307 308 305 308 309 309 313
318 318 317 317 318 317 317 317 316 316 316 316 316 316 315 316 315 315 314 313 314 316 319 320 319 311 296 307 310 307 308 314 323 320 312 315 312 306 304 307 306 301 300 297 305 309 311
318 318 318 317 317 317 317 316 316 315 315 315 315 315 315 315 314 313 312 313 315 321 321 320 310 304 297 317 311 308 306 304 312 315 315 318 310 304 303 299 296 296 294 297 301 309 314
317 317 317 315 315 316 316 315 315 315 315 315 314 314 314 314 313 311 311 312 313 320 318 318 317 301 306 305 313 312 306 310 309 310 310 309 303 299 296 295 290 293 293 295 298 305 312
316 315 315 314 314 315 315 315 315 314 314 314 314 313 313 313 311 310 307 300 297 296 299 306 305 304 307 310 314 308 307 307 308 304 299 303 298 296 297 297 298 299 297 297 300 305 310
315 315 314 314 313 314 314 314 314 313 313 314 313 312 312 311 310 310 300 297 297 296 291 300 299 302 309 307 304 307 308 302 302 298 300 296 297 302 303 300 300 299 296 296 300 304 306
314 314 313 314 314 314 314 314 314 313 313 313 313 312 311 310 309 301 297 297 300 297 289 295 299 299 300 303 301 303 305 303 299 297 299 298 298 305 303 299 298 295 297 297 297 301 304
314 314 314 314 314 314 314 314 313 313 313 313 312 312 310 308 298 298 296 300 300 300 285 292 294 298 302 301 297 308 308 305 301 300 296 296 302 303 300 300 299 291 299 301 299 295 292
314 314 314 313 313 313 313 313 313 313 312 312 312 311 309 308 297 295 297 301 301 292 283 301 295 302 300 298 299 302 311 305 299 298 298 296 297 299 299 300 300 298 302 299 299 295 292
313 313 313 312 312 313 312 312 312 312 312 312 311 310 309 301 296 298 300 300 293 287 282 296 298 295 295 296 297 302 304 307 304 300 298 298 301 302 299 302 302 303 299 295 293 292 288
312 312 311 312 312 312 312 312 312 312 311 310 309 308 305 304 294 299 299 293 284 281 295 293 292 295 294 293 295 298 299 300 297 291 292 296 299 299 301 297 299 299 293 286 285 286 288
312 312 312 313 312 312 312 312 312 311 311 309 307 306 301 302 300 299 294 287 278 289 288 295 295 294 291 294 294 296 296 297 299 296 294 292 289 299 301 298 295 294 292 286 282 283 288
311 312 312 312 312 312 312 312 311 311 310 309 306 296 295 297 301 297 290 280 282 286 293 292 292 289 289 293 292 293 291 296 300 296 293 290 292 301 302 301 302 293 293 295 287 286 284
312 312 312 312 312 312 312 312 311 311 310 308 297 293 292 300 297 294 287 283 285 293 294 292 286 289 286 288 289 289 290 295 296 299 296 293 289 297 302 302 301 297 297 290 285 283 281
312 311 311 312 312 312 312 312 311 310 309 307 291 287 294 299 295 289 280 282 289 294 295 290 288 288 287 288 289 288 289 295 298 298 299 292 290 291 298 297 298 294 292 289 292 287 285
311 312 312 312 312 312 312 312 311 309 307 298 287 282 294 295 284 283 282 286 292 292 293 292 292 290 289 290 288 289 290 294 299 299 294 295 286 289 291 296 302 302 297 291 289 286 285
311 312 312 312 312 313 312 311 310 308 307 294 285 285 294 292 279 280 286 288 291 291 290 290 289 293 293 289 285 291 293 299 298 297 295 295 287 284 287 293 294 293 298 294 296 289 290
311 312 312 312 312 313 312 311 310 309 308 295 287 282 286 289 285 282 282 283 286 294 292 292 290 292 290 288 290 288 291 297 297 299 304 296 286 285 285 288 292 290 295 296 296 293 293
311 311 311 311 312 313 312 311 310 309 308 295 288 284 289 280 282 287 282 284 286 285 291 293 291 289 287 282 286 286 290 291 294 298 293 291 286 287 289 293 294 294 294 296 293 297 294
311 310 311 311 311 311 312 312 311 309 306 293 286 289 291 288 289 287 285 281 284 285 286 287 288 288 288 283 285 283 286 286 287 291 288 288 285 287 288 294 294 292 295 297 297 296 295
310 310 310 310 311 311 311 311 310 309 303 296 298 298 292 289 285 285 283 284 285 287 289 292 290 288 286 289 290 290 290 289 290 287 286 285 286 285 283 290 291 289 294 296 296 297 297
310 310 310 310 310 310 311 311 311 309 304 296 296 297 290 284 287 286 288 287 286 287 286 289 290 287 291 294 293 290 288 289 290 290 290 285 285 285 283 286 281 291 298 300 298 300 299
311 310 310 310 310 310 310 310 311 310 309 298 296 296 291 284 287 287 287 286 287 287 285 287 289 291 292 291 285 282 281 282 286 289 289 290 286 283 282 283 289 293 301 303 301 299 302
310 311 310 310 310 310 310 310 310 310 309 298 296 298 296 288 286 289 286 287 284 283 285 287 291 290 290 285 282 277 276 281 282 286 289 289 290 286 283 282 282 292 307 312 311 297 307
310 310 310 310 310 310 310 311 310 310 309 299 298 298 295 289 292 291 287 286 289 288 286 285 286 287 288 285 283 280 278 285 280 282 281 282 285 282 284 284 289 298 308 314 295 297 312
310 311 311 310 310 310 310 310 311 311 310 304 300 298 297 292 293 294 295 291 291 289 284 286 284 285 285 282 282 281 283 284 282 284 284 283 283 282 284 284 282 306 307 304 306 312 315
310 310 310 310 311 311 311 311 311 311 310 309 298 300 302 295 293 297 296 297 296 294 290 290 289 285 290 285 286 286 284 286 283 280 289 284 289 288 288 287 298 308 309 312 313 314 315
Wind_Speed
15 16 16 18 17 18 19 21 21 20 21 23 23 23 23 23 23 24 24 24 23 24 21 18 15 11 5 3 14 3 14 17 18 15 17 13 17 6 7 6 6 6 6 7 11 3 5
16 16 16 17 18 18 19 20 21 21 21 22 23 23 24 24 25 26 24 23 22 24 22 19 13 6 3 7 6 5 14 16 15 11 11 9 12 6 2 4 7 6 9 14 10 10 6
17 18 18 17 18 18 19 20 20 21 21 22 23 24 25 26 27 28 28 26 26 24 23 19 12 7 3 17 6 8 9 9 13 14 9 5 6 14 7 3 8 7 9 6 8 6 8
18 19 19 18 18 18 19 20 20 21 21 22 24 25 25 26 28 30 32 30 28 23 15 9 15 7 10 5 4 5 5 4 9 6 1 5 4 3 2 1 7 4 2 2 4 5 6
17 17 18 19 19 19 19 19 21 21 22 22 23 25 27 28 29 30 32 29 15 7 12 19 9 4 11 1 4 7 9 7 8 3 3 2 6 5 2 2 5 3 4 5 7 7 3
19 19 19 21 21 20 20 21 21 22 23 24 24 25 26 27 29 31 32 22 5 8 9 5 5 1 5 6 4 6 6 12 6 8 4 6 3 5 2 6 11 6 4 3 5 1 5
19 19 20 21 21 21 21 22 23 24 25 25 26 27 28 28 30 32 15 3 6 3 3 9 5 5 4 5 2 4 6 9 7 5 9 7 5 15 11 7 5 5 5 4 4 3 6
19 19 20 20 21 21 21 22 23 24 25 26 27 27 28 30 31 24 5 7 6 3 14 15 22 18 17 4 4 4 12 10 9 8 9 5 21 11 9 8 9 6 5 7 4 7 2
19 19 19 20 20 20 21 21 22 23 25 26 27 28 27 31 32 5 3 4 4 2 5 11 9 7 7 13 11 8 14 7 7 10 17 19 7 12 13 7 11 6 12 6 4 3 1
19 18 18 19 19 20 20 21 22 23 24 26 28 27 28 30 6 6 5 2 5 3 4 10 6 8 5 9 7 10 16 8 6 21 9 7 8 19 8 14 10 9 8 6 7 4 4
17 18 19 19 20 21 21 22 22 23 24 26 29 27 25 17 5 4 7 11 10 2 7 1 2 1 6 7 0 8 7 2 10 9 10 12 13 14 16 11 8 8 9 9 6 6 3
18 19 20 21 21 21 21 22 23 23 24 25 28 29 28 1 1 7 11 13 1 4 12 3 4 1 5 4 4 4 7 2 6 6 1 8 5 13 11 7 11 7 5 6 5 5 7
19 20 20 21 21 20 21 22 22 23 23 25 28 29 19 1 5 4 7 4 3 6 7 5 4 5 5 3 3 5 11 15 12 9 11 6 13 4 7 7 5 6 8 2 3 4 9
20 19 19 20 20 20 21 21 22 23 24 26 29 28 4 4 7 4 4 5 5 2 3 4 5 8 2 7 3 6 10 18 6 5 8 11 7 17 6 10 11 8 11 8 9 5 5
20 20 20 20 20 20 20 21 21 22 23 24 24 5 5 4 7 3 5 1 5 2 6 8 7 5 5 6 2 3 3 9 9 5 8 9 11 4 10 6 18 7 11 10 5 1 2
20 21 21 21 20 20 20 20 21 21 22 23 7 5 6 6 6 4 5 5 5 6 12 6 3 5 6 7 6 6 5 8 11 7 5 4 1 6 18 6 8 12 9 5 2 7 6
21 21 21 20 20 20 20 20 20 19 20 17 4 6 5 12 3 6 3 5 8 13 11 6 5 6 4 5 5 6 5 6 11 10 8 6 4 3 10 12 19 5 6 4 6 6 7
20 20 20 20 20 19 20 19 18 16 17 7 3 4 5 8 7 2 4 9 9 12 7 6 5 3 2 4 4 5 5 4 10 8 5 2 2 7 6 2 7 22 12 8 7 11 5
19 19 20 19 19 19 18 17 15 13 11 2 3 3 6 4 5 4 7 8 5 12 10 7 5 4 4 4 3 5 5 3 12 9 4 6 2 2 5 7 2 5 10 8 14 2 16
20 20 20 20 20 20 18 15 13 12 11 3 3 5 5 4 1 3 5 6 9 8 4 10 6 6 6 6 5 3 6 6 8 6 8 2 2 4 4 1 4 6 5 9 15 13 15
19 20 20 20 19 19 17 15 12 10 9 3 2 2 1 5 4 6 2 4 8 7 6 5 5 11 7 3 5 4 6 5 5 7 5 4 0 2 2 11 7 12 14 12 12 21 16
18 18 19 19 19 18 17 15 13 10 5 3 0 2 1 4 7 8 4 4 5 8 3 4 4 12 13 3 2 3 6 3 3 6 5 4 1 1 4 9 12 11 13 15 14 11 8
18 18 18 19 19 18 17 16 13 8 5 1 2 2 2 2 2 3 2 4 6 10 9 3 6 10 10 3 4 8 8 8 8 1 4 3 3 2 5 5 10 15 9 14 9 8 11
18 18 18 18 18 19 18 16 13 5 7 3 3 1 2 4 3 5 9 10 13 9 11 13 10 7 4 6 7 5 5 10 10 13 9 2 2 4 5 4 9 5 8 8 17 19 15
19 19 18 18 18 18 18 17 15 10 1 3 3 2 2 5 5 11 12 8 7 8 7 8 11 6 6 4 4 6 4 2 9 15 15 16 4 3 4 6 12 19 4 5 3 9 8
20 19 20 19 20 19 18 18 17 13 8 3 3 3 2 4 5 8 5 1 6 7 5 4 6 5 1 3 1 3 4 3 5 5 14 12 14 4 1 6 8 2 2 8 4 7 10
21 21 21 21 21 21 20 19 19 16 12 3 3 4 3 5 6 7 6 6 4 3 5 4 5 5 2 2 3 3 5 3 4 3 1 5 7 16 12 7 8 4 9 5 7 6 16
21 21 21 22 23 23 23 22 21 20 17 3 4 6 4 4 8 12 13 11 9 6 4 2 5 2 1 1 3 4 4 3 4 5 6 9 8 7 7 7 20 2 6 4 4 8 12
22 23 22 22 23 24 24 23 22 21 18 12 3 3 4 4 7 11 15 17 20 19 8 5 4 2 1 1 2 2 3 3 4 5 4 9 10 5 11 8 7 4 8 7 7 12 11
Wind_Direction
355 355 356 356 354 352 351 351 347 345 344 342 339 336 333 331 327 323 318 314 309 307 303 298 295 302 324 233 248 131 92 143 163 157 162 167 169 178 169 194 176 245 264 240 254 213 208
349 349 353 354 354 351 349 347 346 343 340 338 335 333 331 328 326 321 316 311 305 301 294 287 276 262 216 240 233 177 134 139 172 177 171 155 180 186 186 203 184 207 239 260 266 253 224
359 359 358 355 352 349 347 346 345 343 338 335 333 332 330 327 326 322 316 312 307 298 287 273 234 190 221 232 126 64 150 165 166 178 159 208 154 173 171 265 236 249 283 291 239 197 230
7 3 1 358 354 348 345 345 344 341 339 336 335 332 330 328 326 322 318 315 310 300 278 222 177 178 241 235 283 261 206 110 178 195 298 186 132 143 189 287 1 335 142 245 279 138 232
4 1 360 357 355 351 348 346 343 341 339 337 335 332 330 329 327 324 321 319 326 31 102 130 135 201 259 241 198 195 161 158 140 190 265 94 113 201 140 147 357 334 238 222 315 205 139
3 1 360 358 355 349 349 348 345 343 340 338 336 334 331 330 328 326 325 319 281 94 116 185 112 322 248 221 194 155 174 145 153 130 100 182 117 165 122 151 208 206 212 236 252 250 162
4 1 1 358 356 352 349 347 345 343 342 339 337 335 333 334 329 329 334 6 5 6 322 214 191 272 285 269 269 173 154 138 117 123 156 181 170 214 195 181 186 194 211 195 270 283 140
0 357 358 357 354 352 349 347 346 344 341 337 336 335 335 332 326 325 335 71 93 232 297 244 247 252 259 27 341 209 138 146 158 170 132 115 222 204 177 194 194 207 244 251 288 273 118
1 0 356 354 352 350 347 345 343 342 339 336 333 334 337 335 326 31 323 113 95 286 240 280 210 224 216 161 218 234 165 156 149 152 185 200 222 171 195 177 195 208 215 195 208 336 303
359 355 351 350 349 346 344 342 340 339 336 333 329 333 337 339 37 324 285 32 332 201 313 269 235 256 138 136 233 205 187 151 162 191 129 208 225 192 178 210 177 214 186 151 167 121 215
355 353 352 351 349 346 344 341 339 339 336 330 325 331 337 334 276 306 291 338 322 104 316 210 187 64 165 193 254 202 160 168 172 165 148 208 179 180 206 205 162 221 154 181 167 189 170
355 353 352 351 350 346 344 342 339 338 336 330 322 323 333 19 267 254 308 306 128 53 249 341 74 84 127 241 289 83 171 203 141 127 335 192 193 186 196 169 175 160 97 60 51 109 242
353 351 349 347 346 344 343 340 338 338 336 331 321 326 326 294 272 314 326 345 73 200 329 6 340 11 342 303 232 139 192 191 168 145 194 188 216 190 152 163 170 139 100 301 308 198 239
349 346 345 344 343 341 339 338 337 338 337 331 324 326 292 243 286 317 16 63 219 242 332 339 337 306 139 345 9 331 162 192 216 125 157 176 220 203 186 190 183 183 158 161 202 217 226
345 343 341 340 338 337 337 337 336 336 337 334 327 336 318 270 318 39 48 187 217 344 340 332 314 44 348 350 356 347 7 208 199 182 160 170 238 227 181 160 169 194 195 174 82 273 29
341 340 337 335 334 334 334 336 336 335 336 335 330 347 283 318 314 62 67 276 291 359 350 344 8 34 11 333 25 26 26 333 340 13 352 223 203 206 203 124 193 160 161 137 27 194 244
339 336 333 331 330 329 331 334 335 334 335 336 29 360 271 335 45 43 88 285 301 348 336 334 343 338 20 1 343 355 356 49 1 340 9 8 122 308 124 200 194 153 178 111 140 165 197
337 334 333 333 331 329 328 332 333 333 338 45 34 346 312 350 50 29 339 314 285 343 350 324 335 21 19 2 345 359 49 39 355 321 23 357 97 217 200 204 226 214 197 155 156 223 248
335 334 332 332 329 327 328 332 334 332 352 1 355 277 317 43 58 343 314 298 328 344 336 337 332 18 351 17 9 23 17 73 11 12 37 330 357 77 43 309 163 191 213 183 216 103 216
336 335 337 339 339 336 337 337 338 336 339 74 27 348 324 31 59 10 333 304 337 353 336 339 313 40 6 11 8 357 2 12 333 14 14 55 90 105 215 324 355 306 275 204 206 224 231
335 337 340 342 342 345 345 346 343 337 335 80 32 303 44 318 334 326 300 273 318 350 348 17 341 15 355 351 348 22 3 346 325 8 13 75 90 348 244 284 249 246 254 264 234 225 219
338 340 340 340 338 344 347 350 346 344 73 69 326 304 338 272 280 303 317 306 326 341 292 330 342 340 333 291 52 337 9 332 275 339 23 353 265 121 277 267 296 280 263 256 248 240 258
335 337 340 340 339 339 339 340 346 359 87 315 252 275 172 266 285 284 258 283 310 322 289 184 319 321 321 51 292 246 217 243 241 297 330 312 159 72 263 304 320 297 252 232 230 200 207
329 333 334 333 335 339 338 332 332 341 176 179 251 274 262 280 250 272 282 282 286 279 269 292 296 283 276 329 295 276 223 235 245 248 196 231 203 151 239 314 243 245 310 282 239 231 214
324 328 328 328 330 330 330 328 328 329 356 170 227 216 206 273 277 282 276 271 310 319 276 248 268 261 333 320 337 333 334 278 239 234 213 205 175 249 198 213 299 305 347 22 62 288 262
323 322 322 325 322 320 319 318 320 318 316 149 222 179 252 281 212 261 279 267 297 287 283 274 309 309 102 90 84 240 243 260 291 278 222 192 207 224 154 204 227 259 152 254 191 253 12
322 319 318 318 315 311 310 308 306 306 307 157 249 182 239 256 245 218 229 265 192 262 265 302 304 333 71 180 229 237 252 255 251 254 180 148 191 212 229 249 279 241 305 286 195 296 321
314 312 313 312 311 309 307 304 303 300 292 262 250 186 200 254 257 248 245 248 255 222 234 290 348 342 23 181 221 244 237 253 292 247 202 179 173 194 207 235 237 31 311 205 331 313 303
310 309 309 308 306 306 305 302 298 293 294 277 227 189 198 227 265 273 253 243 237 237 245 212 241 313 288 195 247 295 282 255 244 275 221 231 219 205 199 213 235 164 212 262 280 284 301